Regional Weather Roundup
Issued by NWS Mt. Holly, NJ

Home | Current Version | Previous Version | Text Only | Print | Product List | Glossary On
Versions: 1 2 3 4 5 6 7 8 9 10 11 12 13 14 15 16 17 18 19 20 21 22 23 24 25 26 27
000
ASUS41 KPHI 060312
RWRPHI

REGIONAL WEATHER ROUNDUP
NATIONAL WEATHER SERVICE MOUNT HOLLY NJ
1000 PM EST MON DEC 05 2016

NOTE:  "FAIR" INDICATES FEW OR NO CLOUDS BELOW 12,000 FEET WITH NO
SIGNIFICANT WEATHER AND/OR OBSTRUCTIONS TO VISIBILITY.

 * = STATION DOES NOT REPORT PRECIPITATION (E.G. RAIN, SNOW, ETC.)
        OR FOG.

NJZ015>026-060400-
SOUTHERN NEW JERSEY

CITY           SKY/WX    TMP DP  RH WIND       PRES   REMARKS
POMONA         CLOUDY    36  32  85 NW5       30.09S WCI  32
WILDWOOD*      PTCLDY    40  37  89 CALM      30.10S
MILLVILLE      CLOUDY    34  34 100 CALM      30.10S
WRIGHTSTOWN    PTCLDY    39  33  79 NW7       30.07S WCI  34
MOUNT HOLLY    CLOUDY    36  32  85 CALM      30.10S
TRENTON        CLOUDY    40  31  70 NW3       30.09F

$$
NJZ001>014-060400-
NORTHERN NEW JERSEY

CITY           SKY/WX    TMP DP  RH WIND       PRES   REMARKS
SUSSEX         CLOUDY    29  28  96 CALM      30.08R
ANDOVER*         N/A     29  28  96 CALM      30.09R
MORRISTOWN     PTCLDY    30  30 100 CALM      30.10R
NEWARK         MOCLDY    42  34  73 W7        30.09S
TETERBORO      CLOUDY    42  32  67 NW3       30.08S
CALDWELL       CLOUDY    35  33  92 CALM      30.10R
SOMERVILLE     PTCLDY    31  29  92 CALM      30.08S
ALLAIRE*       PTCLDY    36  32  85 W6        30.10S WCI  31
TOMS RIVER*    PTCLDY    31  29  92 CALM      30.10S

$$
PAZ043-044-047-054-055-060>062-066>071-060400-
EASTERN PENNSYLVANIA

CITY           SKY/WX    TMP DP  RH WIND       PRES   REMARKS
PHILADELPHIA   CLOUDY    43  31  62 NW6       30.11S
NORTH PHILA    PTCLDY    41  32  70 NW5       30.11S
BLUE BELL*     PTCLDY    37  32  81 CALM      30.09S
DOYLESTOWN     CLOUDY    40  30  67 NW3       30.08S
QUAKERTOWN*    PTCLDY    32  30  93 CALM      30.10S
PERKASIE*      FAIR      36  30  80 NW5       30.09F WCI  32
POTTSTOWN      MOCLDY    36  30  79 CALM      30.11S
LANCASTER      CLOUDY    38  31  76 NW3       30.10S
COATESVILLE    CLOUDY    39  30  70 NW8       30.10S WCI  34
READING        CLOUDY    36  28  73 CALM      30.10S
ALLENTOWN      CLOUDY    39  28  64 W5        30.10S
MOUNT POCONO   CLOUDY    32  26  78 W7        30.03R WCI  26
HAZLETON       CLOUDY    36  30  80 W5        30.09R WCI  32
LEHIGHTON        N/A     30  30 100 CALM      30.10S
WILKES BARRE   CLOUDY    36  28  73 W3        30.08R

$$
DEZALL-MDZ008-012-015-019-020-060400-
DELAWARE AND EASTERN MARYLAND

CITY           SKY/WX    TMP DP  RH WIND       PRES   REMARKS
WILMINGTON     PTCLDY    41  32  70 N5        30.11R
DOVER          PTCLDY    41  39  93 NW5       30.10R
GEORGETOWN     CLOUDY    45  37  73 N5        30.10R
EASTON         MOCLDY    41  37  86 CALM      30.14R
ABERDEEN       PTCLDY    41  31  68 VRB3      30.12S
PATUXENT       CLOUDY    42  39  89 CALM      30.08F
OCEAN CITY     PTCLDY    43  37  79 NW3       30.09R
WALLOPS ISLAND CLOUDY    43  40  89 N5        30.09F
CAMBRIDGE      MOCLDY    39  37  93 CALM      30.09S
SALISBURY      CLOUDY    38  38 100 CALM      30.09R

$$
PAZ001-021-NYZ056-072-MDZ011-DCZ001-060400-
OTHER NEARBY LOCATIONS

CITY           SKY/WX    TMP DP  RH WIND       PRES   REMARKS
HARRISBURG     CLOUDY    37  32  82 CALM      30.11R
WILLIAMSPORT   CLOUDY    40  31  70 CALM      30.11R
BINGHAMTON     CLOUDY    32  25  75 W3        30.04S
NEW YORK CITY  PTCLDY    45  31  58 VRB3      30.11R
BALTIMORE      CLOUDY    44  32  62 N5        30.11R
WASHINGTON DC  CLOUDY    47  35  63 N7        30.12R

$$




USA.gov is the U.S. government's official web portal to all federal, state and local government web resources and services.